User: anonymous   Login
Location: Unspecified
(0.0000°N, 0.0000°E)
Time: 07:32:33
(UTC+00:00)
Language:

Hamsat - Orbit

View from above orbital plane
View from above orbital plane
View from above satellite
View from above satellite

Ground track
Ground track

The orbit data is extracted from the following two-line orbital elements,

1 28650U 05017B   18115.88245748 +.00000240 +00000-0 +31287-4 0  9997
2 28650 097.6943 085.4365 0023569 172.1260 188.0332 14.88910079702625
Epoch (UTC): 25 April 2018 21:10:44
Eccentricity: 0.0023569
inclination: 97.6943°
perigee height: 585 km
apogee height: 618 km
right ascension of ascending node: 85.4365°
argument of perigee: 172.1260°
revolutions per day: 14.88910079
mean anomaly at epoch: 188.0332°
orbit number at epoch: 70262

The dashed part of the orbit path shows where the satellite is in the earth's shadow,  

DLR